Regional Weather Roundup
Issued by NWS Midland/Odessa, TX

Home | Current Version | Previous Version | Text Only | Print | Product List | Glossary On
Versions: 1 2 3 4 5 6 7 8 9 10 11 12 13 14 15 16 17 18 19 20 21 22 23 24 25 26 27 28 29 30 31 32 33 34 35 36 37 38 39 40 41 42 43 44 45 46 47 48 49 50
000
ASUS44 KMAF 280210
RWRMAF
MIDLAND AREA WEATHER ROUNDUP
NATIONAL WEATHER SERVICE MIDLAND TX
800 PM CST TUE JAN 27 2015

...IN SOUTHWEST TEXAS AND SOUTHEAST NEW MEXICO...

CITY           SKY/WX    TMP DP  RH WIND       PRES   REMARKS
ALPINE         CLEAR     58  44  60 W7        30.30S
ANDREWS        FAIR      58  33  38 SW7       30.17F
ARTESIA        CLEAR     54  39  58 S7        30.18R
BIG SPRING     CLEAR     59  31  35 SE8       30.18R
CARLSBAD       CLEAR     53  38  56 SW9       30.16R
DRYDEN           N/A     66  40  38 SE7       30.14R
FORT STOCKTON  CLEAR     60  40  47 SE5       30.18S
GUAD PASS      CLEAR     56  39  53 W13       30.27S
HOBBS          CLEAR     54  36  50 CALM      30.19R
MARFA          CLEAR     52  41  66 S3        30.28S
MIDLAND AIRPK  CLEAR     63  34  33 SW5       30.17S
MIDLAND INTL   CLEAR     61  36  39 SW6       30.16S
ODESSA         CLEAR     61  33  35 SW5       30.18R
PECOS          CLEAR     58  42  54 SE6       30.16S
PRESIDIO       FAIR      62  46  56 CALM      30.18S
SEMINOLE       CLEAR     55  35  46 SW6       30.18R
SNYDER         CLEAR    N/A N/A N/A S6        30.15S
WINK           CLEAR     58  34  40 SE8       30.15S
$$
...OTHER STATIONS IN TEXAS...

CITY           SKY/WX    TMP DP  RH WIND       PRES   REMARKS
ABILENE        CLEAR     58  39  49 S8        30.13S
AMARILLO       CLEAR     51  34  52 S9        30.12S
AUSTIN         CLEAR     52  45  77 CALM      30.14R
BROWNSVILLE    CLEAR     59  53  80 S6        30.18R
CORPUS CHRISTI CLEAR     59  48  67 S9        30.14R
DALLAS FTW     MOCLDY    62  39  42 SE6       30.11R
DEL RIO        CLEAR     68  36  30 SE5       30.12R
EL PASO        PTCLDY    59  40  49 E5        30.20S
HOUSTON INT    PTCLDY    57  48  72 CALM      30.13R
LUBBOCK        CLEAR     59  32  36 S8        30.14S
SAN ANGELO     CLEAR     52  39  61 SE3       30.13S
SAN ANTONIO    PTCLDY    65  39  38 CALM      30.14R
WACO           CLEAR     52  43  71 S6        30.13R
WICHITA FALLS  NOT AVBL
$$
...OTHER LOCATIONS IN NEW MEXICO...

CITY           SKY/WX    TMP DP  RH WIND       PRES   REMARKS
ALAMAGORDO     CLEAR     54  36  50 CALM      30.23R
ALBUQUERQUE    PTCLDY    52  29  41 W3        30.25S
CANNON AFB     CLEAR     50  34  53 SW10      30.16R
CLOVIS         CLEAR     48  34  57 SW10      30.15S
HOLLOMAN AFB   CLEAR     50  41  69 NE7       30.21R
ROSWELL        CLEAR     54  36  50 SW3       30.17R
RUIDOSO        CLEAR     46  34  61 CALM      30.31S
SANTA FE       MOCLDY    45  33  63 NW8       30.24R
TRUTH OR CONSE CLEAR     58  37  45 CALM      30.22R
TUCUMCARI      CLEAR     54  37  52 SW12      30.10S
$$



USA.gov is the U.S. government's official web portal to all federal, state and local government web resources and services.